Flag for U.S.A. Weather past 2 weeks in Bowling Green, Kentucky, U.S.A.

Now
67 °F

Sunny.


Feels Like: 67 °F
Forecast: 41 / 66 °F
Wind: 5 mph from South

Location: Glasgow Municipal Airport


UV Index: 5 (Moderate)

Visibility: 10 mi


Pressure: 30.27 "Hg

Humidity: 26%

Dew point: 31 °F

Location of Bowling GreenLocation

Historic Weather in Bowling Green

°F

Bowling Green temperature yesterday

Maximum temperature yesterday: 57 °F (at 4:55 PM)
Minimum temperature yesterday: 29 °F (at 3:55 AM)
Average temperature yesterday: 42 °F

Past Weeks' High & Low Weather Summary

 TemperatureHumidityPressure
High80 °F (Apr 13, 2:55 PM)100% (Apr 3, 2:55 AM)30.39 "Hg (Apr 3, 2:55 AM)
Low29 °F (Apr 16, 3:55 AM)25% (Apr 17, 3:15 PM)29.45 "Hg (Apr 7, 3:15 PM)
Average56 °F65%29.99 "Hg
* Reported Apr 2 4:15 PM — Apr 17 4:15 PM, Bowling Green, Weather by CustomWeather, © 2014

Note: Actual official high and low records may vary slightly from our data, if they occured in-between our weather recording intervals... More about our weather records

Advertising

Historic Weather Conditions — Data for Previous 24 hours

 ConditionsComfort  
Time TempWeatherWind HumidityBarometerVisibility
4:15 PM
Apr 17
67 °FSunny.6 mph26%30.26 "Hg10 mi
3:55 PM66 °FSunny.3 mph26%30.26 "Hg10 mi
3:35 PM66 °FSunny.7 mph27%30.26 "Hg10 mi
3:15 PM66 °FSunny.5 mph25%30.27 "Hg10 mi
2:55 PM66 °FSunny.6 mph27%30.27 "Hg10 mi
2:35 PM65 °FSunny.3 mph29%30.29 "Hg10 mi
2:15 PM65 °FSunny.7 mph31%30.31 "Hg10 mi
1:55 PM65 °FSunny.6 mph32%30.32 "Hg10 mi
1:35 PM64 °FSunny.5 mph33%30.33 "Hg10 mi
1:15 PM64 °FSunny.6 mph32%30.34 "Hg10 mi
12:55 PM63 °FSunny.6 mph32%30.35 "Hg10 mi
11:55 AM62 °FSunny.9 mph34%30.37 "Hg10 mi
11:15 AM60 °FSunny.7 mph35%30.38 "Hg10 mi
10:55 AM59 °FSunny.8 mph34%30.39 "Hg10 mi
10:35 AM58 °FSunny.6 mph35%30.39 "Hg10 mi
10:15 AM57 °FSunny.9 mph37%30.39 "Hg10 mi
9:55 AM56 °FSunny.10 mph38%30.39 "Hg10 mi
9:35 AM55 °FSunny.13 mph38%30.38 "Hg10 mi
9:15 AM54 °FSunny.9 mph39%30.38 "Hg10 mi
8:55 AM54 °FSunny.9 mph41%30.37 "Hg10 mi
8:35 AM52 °FSunny.10 mph44%30.37 "Hg10 mi
8:15 AM51 °FSunny.9 mph46%30.36 "Hg10 mi
7:55 AM50 °FSunny.9 mph48%30.36 "Hg10 mi
7:15 AM47 °FSunny.6 mph53%30.35 "Hg10 mi
6:55 AM46 °FClear.7 mph53%30.34 "Hg10 mi
6:35 AM46 °FClear.5 mph54%30.33 "Hg10 mi
6:15 AM46 °FClear.5 mph54%30.32 "Hg10 mi
5:55 AM46 °FClear.7 mph55%30.31 "Hg10 mi
5:35 AM46 °FClear.5 mph55%30.30 "Hg10 mi
5:15 AM46 °FClear.6 mph55%30.29 "Hg10 mi
4:55 AM47 °FClear.6 mph54%30.29 "Hg10 mi
4:35 AM47 °FClear.6 mph54%30.28 "Hg10 mi
4:15 AM47 °FClear.6 mph53%30.27 "Hg10 mi
3:55 AM47 °FClear.8 mph53%30.27 "Hg10 mi
3:35 AM47 °FClear.6 mph53%30.27 "Hg10 mi
3:15 AM47 °FClear.6 mph53%30.26 "Hg10 mi
2:15 AM46 °FClear.5 mph56%30.25 "Hg10 mi
1:55 AM44 °FClear.3 mph61%30.24 "Hg10 mi
1:15 AM39 °FClear.No wind77%30.24 "Hg10 mi
12:55 AM39 °FClear.No wind77%30.24 "Hg10 mi
12:35 AM40 °FClear.No wind73%30.24 "Hg10 mi
12:15 AM41 °FClear.No wind70%30.23 "Hg10 mi
11:55 PM
Apr 16
40 °FClear.3 mph72%30.23 "Hg10 mi
11:35 PM40 °FClear.No wind73%30.22 "Hg10 mi
11:15 PM41 °FClear.No wind68%30.22 "Hg10 mi
10:55 PM42 °FClear.No wind65%30.22 "Hg10 mi
10:15 PM43 °FClear.No wind63%30.21 "Hg10 mi
9:55 PM43 °FClear.No wind60%30.21 "Hg10 mi
9:35 PM45 °FClear.No wind52%30.21 "Hg10 mi
9:15 PM45 °FClear.No wind53%30.21 "Hg10 mi
8:35 PM47 °FClear.3 mph48%30.20 "Hg10 mi
8:15 PM49 °FSunny.3 mph45%30.19 "Hg10 mi
7:55 PM49 °FSunny.3 mph46%30.19 "Hg10 mi
7:35 PM50 °FSunny.No wind42%30.19 "Hg10 mi
7:15 PM52 °FSunny.No wind39%30.18 "Hg10 mi
6:55 PM53 °FSunny.No wind36%30.18 "Hg10 mi
6:35 PM54 °FSunny.3 mph34%30.18 "Hg10 mi
6:15 PM56 °FSunny.3 mph32%30.19 "Hg10 mi
5:55 PM57 °FSunny.5 mph29%30.19 "Hg10 mi
5:35 PM57 °FSunny.6 mph28%30.19 "Hg10 mi
5:15 PM57 °FSunny.5 mph28%30.20 "Hg10 mi
Weather by CustomWeather, © 2014

See weather overview